{"data":{"norad_id":68260,"intl_designator":"2026-054AE","name":"STARLINK-37056","alt_names":[],"object_type":"PAYLOAD","status":"ACTIVE","operator":null,"country":"US","launch_date":"2026-03-17","launch_site_code":"AFETR","launch_vehicle":null,"mission":null,"orbit_class":"UNKNOWN","rcs_meters":null,"size_class":null,"mass_kg":null,"dimensions":null,"purposes":["comms"],"wikipedia_slug":null,"has_3d_model":false,"image_url":null,"decayed_at":null,"tle_current":{"epoch":"2026-05-24T21:25:46.722432Z","epoch_age_seconds":91228,"freshness":"FRESH","line1":"1 68260U 26054AE  26144.89290188  .00057354  00000+0  10307-2 0  9997","line2":"2 68260  53.1578 299.0309 0000967  90.4438 269.6682 15.49337597 10716","mean_motion":15.49337597,"eccentricity":9.67e-5,"inclination_deg":53.1578,"raan_deg":299.0309,"arg_perigee_deg":90.4438,"mean_anomaly_deg":269.6682,"bstar":0.0010307,"rev_number":1071,"period_min":92.942945603869,"perigee_km":418.00539555684,"apogee_km":419.3198966084,"semimajor_km":6796.7996460826,"source":"CELESTRAK","updated_at":"2026-05-25T13:38:21.889133Z"}}}